SCP
0 0 0 0 0 0 0 0 0 0 1 1 1 1 1 1 1 2 2 1 2 2 1 1 1 1 1 1 1 1 3 5 6 6 6 6 5 8 11 6 1 1 1 1
0 0 0 0 0 0 0 0 0 0 1 1 1 1 1 1 1 2 1 1 2 2 2 1 1 1 1 1 1 1 3 5 7 6 6 6 5 6 6 4 1 1 2 2
0 0 0 0 0 0 0 0 0 0 0 1 1 1 1 1 2 2 2 1 2 2 2 2 2 2 1 1 1 1 2 5 7 7 5 5 5 5 4 3 2 2 2 2
0 0 0 0 0 0 0 0 0 0 0 0 0 0 1 1 2 2 2 2 1 2 3 3 3 2 2 2 2 2 2 4 6 6 5 4 4 5 4 3 3 3 3 3
0 0 0 0 0 0 0 0 0 0 0 0 0 0 1 1 2 2 2 2 2 2 3 4 4 4 3 2 2 2 3 4 5 5 5 4 4 5 4 4 3 3 3 3
0 0 0 1 1 1 0 0 0 0 0 0 0 0 0 1 1 2 2 3 3 3 4 5 6 6 5 4 3 3 3 3 4 4 4 4 4 5 4 3 3 2 2 2
0 0 1 1 1 0 0 0 0 0 0 0 0 0 0 1 1 2 3 5 5 5 5 6 7 8 7 5 4 4 4 3 3 3 3 3 4 5 4 3 2 2 2 1
0 0 1 1 1 0 0 0 0 0 0 0 0 0 1 1 2 2 4 5 7 7 6 7 8 9 7 5 4 4 4 4 4 3 3 3 4 4 3 3 2 2 2 1
0 0 0 1 1 0 0 0 0 0 0 0 0 1 1 1 2 2 3 5 6 7 7 8 8 8 6 4 4 4 5 4 4 4 3 3 4 4 3 2 2 2 2 2
0 0 0 1 1 0 0 0 0 0 0 0 0 1 1 1 2 2 3 4 4 5 6 7 6 5 4 3 4 5 5 5 5 4 3 3 3 3 3 3 2 2 2 2
0 1 1 1 1 0 0 0 0 0 0 0 0 1 1 1 2 2 2 3 3 4 4 4 4 3 2 3 5 6 7 7 6 4 3 3 4 3 3 3 3 3 2 2
1 1 1 1 1 0 0 0 0 0 0 0 0 1 2 2 2 2 2 3 4 3 3 3 3 2 2 4 7 9 8 7 5 3 2 3 4 4 3 3 3 3 3 2
0 1 1 1 0 0 0 0 0 0 0 0 0 1 2 3 2 2 2 4 4 3 3 2 2 2 3 5 8 9 7 5 3 2 2 3 4 5 4 3 3 3 2 2
0 0 1 1 1 1 1 0 0 0 0 0 1 2 2 2 2 2 2 3 3 3 3 2 2 2 3 6 7 6 5 4 3 3 2 3 4 5 5 4 3 3 2 2
0 0 0 1 1 1 1 1 1 1 0 0 1 2 3 2 2 2 2 2 2 3 3 3 2 2 3 4 4 4 4 5 4 4 3 3 4 6 6 5 5 4 3 3
0 0 0 1 1 2 2 1 1 1 1 1 1 2 3 3 3 3 3 3 2 3 4 4 3 3 3 3 3 4 5 5 5 4 3 3 4 6 6 6 5 4 4 3
0 0 0 0 1 2 2 1 1 1 1 1 2 3 4 3 3 3 3 3 4 5 5 5 4 4 3 3 3 4 6 5 4 3 3 3 4 6 6 6 5 5 5 5
0 0 0 0 1 2 1 1 1 1 1 2 2 3 4 4 3 3 3 4 5 6 6 5 4 4 3 3 3 4 5 4 3 2 3 3 3 4 5 5 5 6 6 6
0 0 0 0 1 1 1 1 1 1 2 2 2 3 4 3 3 3 4 5 6 6 5 4 4 4 3 3 3 3 3 3 2 2 2 3 3 3 4 5 5 6 6 6
0 0 0 0 0 1 1 1 1 1 2 2 3 3 3 2 2 2 4 5 5 5 5 4 4 4 3 3 3 3 3 2 2 2 2 2 2 3 3 4 5 6 6 6
0 0 0 0 0 1 1 1 1 1 2 2 2 2 2 2 1 2 3 5 6 5 5 5 4 4 3 3 3 3 3 2 2 2 2 2 2 2 3 4 5 5 5 5
1 0 0 1 1 1 1 1 1 1 2 2 2 2 2 2 2 2 3 5 6 6 5 5 4 4 3 3 3 3 3 2 2 2 2 1 1 2 2 3 4 4 3 3
1 1 2 3 3 3 2 2 2 2 3 3 3 2 2 2 2 3 4 5 6 6 5 5 4 3 3 3 3 3 3 3 3 2 2 2 2 2 2 3 3 3 3 3
3 3 6 8 8 6 5 5 5 6 6 6 4 3 4 4 4 4 5 6 6 5 5 5 4 4 3 3 3 3 3 4 3 3 2 2 3 3 3 3 3 3 3 3
3 4 7 10 9 7 7 7 8 8 8 7 6 6 7 8 7 6 5 6 6 6 6 5 5 4 4 3 3 3 3 3 3 3 2 3 3 3 3 3 3 3 3 3
2 4 6 9 8 6 6 7 8 8 7 7 8 9 10 11 9 7 6 6 7 8 7 6 5 4 3 3 2 2 3 3 3 3 3 3 3 3 3 2 2 2 2 2
Wind_Speed
2 3 3 7 6 6 4 3 4 3 3 4 5 5 4 3 5 8 8 8 8 7 6 6 7 8 7 6 6 5 5 3 3 2 2 2 1 1 1 1 2 2 2 2
4 4 9 6 5 3 3 2 3 2 2 4 6 4 4 4 6 7 8 8 8 6 5 6 6 6 7 7 6 6 5 4 3 2 2 2 2 1 1 1 1 1 2 2
6 8 6 5 4 3 4 4 4 3 1 3 6 3 0 2 3 6 8 7 8 10 9 8 7 6 6 6 6 6 5 5 4 3 2 2 2 2 2 1 1 1 1 2
6 6 4 4 5 4 5 5 5 4 3 1 3 2 4 3 3 5 7 7 8 9 8 7 7 6 7 6 6 5 5 5 4 4 3 3 3 1 1 1 0 0 1 1
6 4 3 5 7 6 7 6 3 3 3 2 2 3 4 1 3 5 6 8 8 8 9 8 8 8 6 6 5 5 4 4 4 4 4 3 2 1 1 1 1 1 1 1
7 4 4 5 5 4 3 3 5 5 5 2 3 3 3 4 7 6 5 7 7 8 8 7 6 6 5 5 5 5 5 4 4 4 4 4 3 2 2 1 1 0 0 0
6 5 4 2 2 3 4 6 4 5 4 4 2 2 5 4 5 8 8 7 6 6 6 7 7 6 6 5 4 4 5 4 4 4 4 4 3 3 3 2 2 1 0 0
2 6 5 3 4 4 2 9 7 4 4 3 3 1 4 2 4 6 6 5 6 6 6 8 8 8 7 6 5 5 5 4 3 4 3 3 3 2 2 2 2 2 1 1
5 6 6 4 3 5 2 3 8 7 2 1 2 2 4 3 5 7 6 5 5 5 6 6 7 7 6 6 6 6 5 4 4 4 3 3 3 2 2 2 1 1 1 1
7 3 5 4 3 2 4 5 5 6 4 1 2 3 4 4 5 7 7 6 5 5 5 5 5 5 5 5 4 4 5 4 3 3 3 3 2 2 2 2 2 1 1 0
4 4 4 3 1 3 1 2 5 4 6 6 3 5 6 10 9 9 9 8 7 7 6 5 5 4 5 5 4 4 3 3 3 3 2 2 2 2 2 2 2 1 1 0
3 6 2 5 5 4 3 3 6 5 3 4 4 6 2 8 8 8 8 7 7 7 5 5 5 4 4 5 4 4 4 3 3 3 2 2 2 2 2 2 1 1 1 1
4 6 2 7 7 5 1 0 3 5 5 4 4 4 1 5 6 6 6 6 7 7 6 5 4 4 4 4 4 4 3 3 3 3 2 2 2 2 2 2 2 2 2 1
6 5 7 7 7 4 3 2 1 5 3 3 5 5 3 5 6 5 6 6 6 7 7 7 5 4 5 5 4 4 3 3 3 3 3 3 3 2 2 2 2 2 3 2
6 3 3 4 5 2 1 3 1 3 5 6 6 8 8 8 8 7 7 7 7 6 7 7 7 5 4 4 4 4 4 3 3 3 3 2 3 2 2 2 1 2 2 2
4 3 1 2 1 2 2 2 0 1 3 5 6 3 5 6 6 6 7 8 8 7 7 6 6 5 4 4 4 3 4 3 4 4 3 2 2 2 2 2 1 1 1 2
2 4 3 2 3 3 2 3 1 2 2 6 6 5 5 6 6 7 7 6 6 6 6 5 5 5 5 5 5 4 4 4 4 3 3 2 2 2 2 2 1 2 2 1
5 4 3 1 3 2 6 2 5 7 4 3 5 6 8 8 5 4 5 6 5 6 5 4 4 3 2 3 4 4 3 3 4 3 3 2 2 2 2 2 2 2 1 1
6 7 4 3 2 3 3 2 2 6 2 1 6 6 6 6 6 3 1 4 5 5 4 4 4 4 2 3 4 4 3 3 3 2 3 3 3 3 2 2 2 2 2 1
4 6 6 4 3 4 5 4 1 8 1 2 4 6 4 5 4 3 2 3 3 4 4 4 4 4 3 2 3 4 3 3 2 2 2 2 2 3 3 3 2 1 2 2
4 4 3 3 3 4 5 4 2 4 6 3 4 6 6 4 5 5 5 4 4 4 4 4 4 3 3 2 3 3 2 2 3 2 2 2 2 3 3 2 2 1 1 1
3 2 2 3 2 5 4 2 3 6 4 3 4 4 5 4 4 4 5 4 4 4 3 4 4 2 2 2 3 2 2 3 2 2 2 1 2 2 2 2 2 1 2 1
1 4 4 5 5 5 2 2 3 4 4 3 3 3 6 6 5 5 4 4 4 4 3 3 4 3 1 1 3 3 3 2 2 2 2 1 1 1 1 2 2 1 1 1
3 1 3 2 0 1 2 3 3 4 4 3 4 5 7 7 6 5 4 4 3 3 3 2 4 3 1 0 0 2 2 2 2 2 1 1 1 1 1 1 2 2 2 2
2 1 2 1 1 3 4 3 2 4 5 6 5 5 6 8 6 5 4 3 3 3 2 3 3 2 1 0 1 1 1 1 1 1 1 1 1 1 1 1 1 2 3 4
1 2 4 4 4 3 2 1 2 5 4 5 7 6 5 6 6 6 4 3 3 3 3 3 2 2 1 1 1 1 1 0 1 1 1 1 1 1 1 1 1 2 2 4
Wind_Direction
307 83 230 230 211 206 212 236 270 250 191 112 110 111 131 144 138 145 148 151 156 162 159 149 147 145 137 133 129 128 126 129 119 106 100 92 86 77 70 79 99 103 103 110
359 262 233 224 236 232 241 218 267 299 161 130 117 116 141 148 163 155 151 157 160 154 148 145 146 150 148 149 146 142 144 142 140 138 139 135 132 128 140 103 86 115 122 130
222 243 236 216 223 242 261 214 221 207 29 85 104 43 268 174 144 142 152 163 158 164 163 159 155 155 149 154 160 156 156 148 147 137 110 86 62 40 39 40 34 29 101 106
250 247 230 224 219 184 252 242 209 192 125 218 138 167 263 198 158 166 168 166 163 163 157 155 154 157 163 166 158 148 150 147 149 138 130 131 132 143 196 186 160 341 72 109
256 241 215 239 236 197 221 228 204 180 130 63 31 124 270 179 172 194 181 171 168 162 159 167 167 164 158 155 147 140 137 137 140 138 142 138 133 151 146 103 92 53 34 84
252 257 210 224 255 222 186 67 42 52 68 21 255 150 241 206 196 180 170 169 161 160 163 166 162 150 145 140 140 142 140 143 146 144 143 144 143 141 125 125 129 45 15 13
303 296 268 226 300 316 88 87 39 9 17 262 270 133 236 220 175 163 162 167 163 156 154 154 151 148 151 149 152 148 144 150 157 153 151 152 151 150 157 171 175 171 161 236
236 286 266 231 196 204 185 134 152 187 207 272 334 229 263 193 132 131 141 154 142 142 157 158 159 162 162 159 159 154 153 153 162 165 168 157 150 154 167 176 173 177 189 203
188 252 276 253 223 160 163 168 164 135 128 94 297 305 326 89 106 119 126 130 137 142 147 153 153 152 156 158 163 163 159 161 166 172 168 159 153 151 167 177 168 170 186 179
163 229 279 293 16 2 161 156 94 110 136 190 256 226 214 182 154 143 146 149 149 142 134 126 132 144 156 162 159 152 160 168 160 154 168 162 161 165 173 156 162 175 194 192
137 150 299 356 199 229 41 78 105 117 145 150 206 256 214 175 167 163 165 166 151 142 138 134 133 144 155 148 143 140 138 133 139 146 148 160 166 168 156 155 185 182 168 119
144 128 236 260 260 208 160 158 137 143 207 157 159 261 258 164 158 157 162 156 150 149 147 136 124 122 138 140 139 145 148 142 147 143 134 164 169 159 155 162 183 158 135 137
130 112 68 340 340 352 17 134 127 133 123 144 154 245 228 138 143 154 155 155 159 148 141 132 126 132 146 144 143 144 145 146 138 131 126 148 176 168 170 174 167 144 130 120
117 117 155 191 221 242 280 279 136 113 136 175 190 185 176 161 154 156 159 157 156 152 149 148 152 158 160 154 158 155 148 143 139 137 142 170 186 188 189 176 161 153 143 148
96 124 186 216 226 192 260 265 200 147 172 166 186 172 189 181 171 168 160 154 145 152 154 159 165 167 162 158 162 163 156 159 157 150 152 183 187 185 179 164 170 168 161 167
80 109 67 330 323 77 29 325 172 127 119 131 136 179 195 168 140 142 151 156 154 164 166 165 165 167 163 166 167 166 168 174 160 151 159 168 158 175 186 187 175 162 168 164
86 105 84 280 291 49 350 279 158 102 108 138 162 195 150 133 146 159 155 151 154 161 163 166 174 176 181 184 177 174 178 169 161 163 168 169 169 169 191 189 166 184 194 178
132 107 126 162 48 190 239 239 114 102 70 94 132 145 147 151 148 148 141 136 143 150 156 165 166 163 177 166 157 156 153 156 163 170 178 181 176 171 170 168 183 203 204 197
142 135 122 120 139 258 287 306 146 118 54 89 135 138 141 125 82 47 112 136 152 157 155 161 161 150 151 159 151 138 137 151 157 169 189 191 181 180 178 180 195 196 187 208
70 106 119 126 145 213 246 278 189 104 72 275 146 147 154 126 120 228 211 151 139 129 128 135 136 125 139 170 150 140 153 157 180 191 191 191 187 184 189 199 203 195 186 207
35 45 110 149 179 247 263 288 66 130 212 223 162 155 156 163 180 186 162 152 146 135 129 131 130 133 155 159 138 140 155 194 208 188 173 169 170 179 189 197 201 193 184 173
150 134 159 134 161 247 289 36 143 197 197 159 147 155 148 141 127 125 134 136 123 115 115 125 127 134 151 138 129 144 199 219 195 173 166 170 176 184 173 176 194 176 154 151
126 175 174 173 203 237 281 147 171 150 131 139 144 159 141 131 126 125 136 135 125 121 119 115 117 110 88 127 143 168 224 212 177 164 174 181 181 181 162 165 176 169 162 167
324 59 98 81 343 343 37 60 69 103 111 123 135 137 134 131 135 136 138 135 129 127 126 118 111 103 76 10 162 211 231 207 158 169 200 199 175 176 154 165 172 178 193 201
277 30 72 97 217 31 14 33 68 65 81 91 100 112 132 131 131 133 135 139 136 127 126 127 126 122 119 29 12 319 291 120 127 152 197 214 189 173 170 195 214 210 214 205
291 169 157 206 220 159 245 287 85 83 76 94 99 92 100 122 131 129 132 137 134 130 125 115 112 115 108 70 8 342 339 65 136 144 224 234 212 200 198 209 314 314 270 254